Location: Eastchurch
(51.4000°N, 0.8667°E)
Time: 07:13:17
(UTC+00:00)

Cosmos 1515 Rocket - Pass Details

Date: 19 January 2026
Orbit: 599 x 623 km, 82.5° (Epoch: 18 February)

Event Time Altitude Azimuth Distance (km) Brightness Sun altitude
Rises 17:25:38 0° 184° (S) 2,889 7.3 -9.5°
Reaches altitude 10° 17:27:51 10° 183° (S) 1,990 6.5 -9.8°
Maximum altitude 17:32:15 77° 98° (E) 648 3.5 -10.4°
Drops below altitude 10° 17:36:42 10° 13° (NNE) 2,008 5.9 -11.1°
Sets 17:38:56 0° 12° (NNE) 2,918 6.7 -11.4°
